Meteo pe oră la Czyste

Astăzi, 11 Aprilie, Duminică

Timp Temperatura Precipitaţii Vânt Presiune Umiditate
00:00 +6°C° 0 mm 2 m/s 756 mmHg 95%
01:00 +6°C° 0 mm 2 m/s 755 mmHg 95%
02:00 +6°C° 0 mm 2 m/s 755 mmHg 95%
03:00 +6°C° 0 mm 2 m/s 755 mmHg 95%
04:00 +6°C° 0 mm 2 m/s 755 mmHg 95%
05:00 +5°C° 0 mm 3 m/s 754 mmHg 93%
06:00 +7°C° 0 mm 3 m/s 754 mmHg 91%
07:00 +7°C° 0 mm 4 m/s 754 mmHg 88%
08:00 +10°C° 0 mm 4 m/s 754 mmHg 81%
09:00 +12°C° 0 mm 5 m/s 754 mmHg 73%
10:00 +14°C° 0 mm 5 m/s 753 mmHg 66%
11:00 +15°C° 0 mm 6 m/s 753 mmHg 60%
12:00 +16°C° 0 mm 6 m/s 753 mmHg 55%
13:00 +17°C° 0 mm 6 m/s 752 mmHg 49%
14:00 +17°C° 0 mm 6 m/s 752 mmHg 52%
15:00 +16°C° 0 mm 7 m/s 752 mmHg 55%
16:00 +15°C° 0 mm 7 m/s 752 mmHg 59%
17:00 +14°C° 0 mm 6 m/s 752 mmHg 61%
18:00 +13°C° 0 mm 6 m/s 752 mmHg 64%
19:00 +12°C° 0 mm 5 m/s 752 mmHg 67%
20:00 +12°C° 0 mm 5 m/s 752 mmHg 66%
21:00 +11°C° 0 mm 6 m/s 752 mmHg 64%
22:00 +11°C° 0 mm 6 m/s 752 mmHg 63%
23:00 +11°C° 0 mm 6 m/s 753 mmHg 65%

Mâine, 12 Aprilie, Luni

Timp Temperatura Precipitaţii Vânt Presiune Umiditate
00:00 +10°C° 0 mm 5 m/s 753 mmHg 67%
01:00 +9°C° 0 mm 5 m/s 753 mmHg 69%
02:00 +8°C° 0 mm 4 m/s 753 mmHg 73%
03:00 +8°C° 0 mm 4 m/s 753 mmHg 77%
04:00 +8°C° 0 mm 3 m/s 753 mmHg 81%
05:00 +8°C° 0 mm 3 m/s 753 mmHg 82%
06:00 +9°C° 0 mm 3 m/s 754 mmHg 82%
07:00 +9°C° 0 mm 3 m/s 754 mmHg 82%
08:00 +8°C° 0 mm 4 m/s 754 mmHg 82%
09:00 +7°C° 0 mm 4 m/s 755 mmHg 82%
10:00 +7°C° 0 mm 5 m/s 755 mmHg 83%
11:00 +6°C° 0.4 mm 5 m/s 756 mmHg 84%
12:00 +5°C° 0.4 mm 5 m/s 756 mmHg 85%
13:00 +3°C° 0.4 mm 5 m/s 757 mmHg 87%
14:00 +3°C° 1.1 mm 5 m/s 757 mmHg 90%
15:00 +2°C° 1.1 mm 5 m/s 757 mmHg 92%
16:00 +1°C° 1.1 mm 5 m/s 758 mmHg 95%
17:00 +1°C° 0.5 mm 4 m/s 758 mmHg 95%
18:00 +1°C° 0.5 mm 4 m/s 759 mmHg 94%
19:00 +2°C° 0.5 mm 3 m/s 759 mmHg 94%
20:00 +2°C° 0 mm 3 m/s 760 mmHg 92%
21:00 +2°C° 0 mm 3 m/s 760 mmHg 90%
22:00 +3°C° 0 mm 2 m/s 760 mmHg 88%
23:00 +3°C° 0 mm 2 m/s 760 mmHg 88%

Poimâine, 13 Aprilie, Marţi

Timp Temperatura Precipitaţii Vânt Presiune Umiditate
00:00 +3°C° 0 mm 2 m/s 760 mmHg 87%
01:00 +2°C° 0 mm 2 m/s 760 mmHg 86%
02:00 +2°C° 0 mm 2 m/s 761 mmHg 85%
03:00 +2°C° 0 mm 2 m/s 761 mmHg 84%
04:00 +2°C° 0 mm 2 m/s 761 mmHg 83%
05:00 +3°C° 0 mm 2 m/s 761 mmHg 80%
06:00 +3°C° 0 mm 2 m/s 762 mmHg 76%
07:00 +4°C° 0 mm 2 m/s 762 mmHg 73%
08:00 +4°C° 0 mm 3 m/s 762 mmHg 67%
09:00 +5°C° 0 mm 3 m/s 762 mmHg 62%
10:00 +7°C° 0 mm 3 m/s 762 mmHg 57%
11:00 +8°C° 0 mm 3 m/s 762 mmHg 51%
12:00 +8°C° 0 mm 3 m/s 762 mmHg 44%
13:00 +8°C° 0 mm 4 m/s 762 mmHg 38%
14:00 +9°C° 0 mm 3 m/s 761 mmHg 39%
15:00 +9°C° 0 mm 3 m/s 761 mmHg 39%
16:00 +9°C° 0 mm 3 m/s 761 mmHg 40%
17:00 +8°C° 0 mm 3 m/s 761 mmHg 44%
18:00 +7°C° 0 mm 2 m/s 761 mmHg 48%
19:00 +6°C° 0 mm 2 m/s 761 mmHg 52%
20:00 +6°C° 0 mm 2 m/s 761 mmHg 56%
21:00 +4°C° 0 mm 3 m/s 761 mmHg 60%
22:00 +4°C° 0 mm 3 m/s 761 mmHg 64%
23:00 +3°C° 0 mm 3 m/s 761 mmHg 67%

14 Aprilie, Miercuri

Timp Temperatura Precipitaţii Vânt Presiune Umiditate
00:00 +3°C° 0 mm 3 m/s 761 mmHg 70%
01:00 +2°C° 0 mm 3 m/s 761 mmHg 72%
02:00 +3°C° 0 mm 2 m/s 761 mmHg 73%
03:00 +3°C° 0 mm 2 m/s 761 mmHg 75%
04:00 +3°C° 0 mm 2 m/s 761 mmHg 76%
05:00 +2°C° 0 mm 3 m/s 761 mmHg 75%
06:00 +2°C° 0 mm 3 m/s 761 mmHg 75%
07:00 +3°C° 0 mm 3 m/s 761 mmHg 74%
08:00 +4°C° 0 mm 4 m/s 761 mmHg 70%
09:00 +4°C° 0 mm 4 m/s 761 mmHg 67%
10:00 +5°C° 0 mm 4 m/s 760 mmHg 63%
11:00 +6°C° 0 mm 5 m/s 760 mmHg 58%
12:00 +7°C° 0 mm 5 m/s 760 mmHg 53%
13:00 +8°C° 0 mm 5 m/s 760 mmHg 47%
14:00 +7°C° 0 mm 6 m/s 760 mmHg 50%
15:00 +7°C° 0 mm 6 m/s 760 mmHg 53%
16:00 +7°C° 0 mm 6 m/s 759 mmHg 56%
17:00 +5°C° 0 mm 6 m/s 760 mmHg 58%
18:00 +4°C° 0 mm 6 m/s 760 mmHg 60%
19:00 +3°C° 0 mm 6 m/s 760 mmHg 62%
20:00 +2°C° 0 mm 6 m/s 760 mmHg 65%
21:00 +1°C° 0 mm 6 m/s 760 mmHg 68%
22:00 +1°C° 0 mm 6 m/s 760 mmHg 71%
23:00 +1°C° 0 mm 6 m/s 760 mmHg 72%

15 Aprilie, Joi

Timp Temperatura Precipitaţii Vânt Presiune Umiditate
00:00 +1°C° 0 mm 5 m/s 760 mmHg 73%
01:00 0°C° 0 mm 5 m/s 760 mmHg 75%
02:00 -1°C° 0 mm 6 m/s 760 mmHg 76%
03:00 -1°C° 0 mm 6 m/s 759 mmHg 77%
04:00 -1°C° 0 mm 6 m/s 759 mmHg 78%
05:00 +1°C° 0 mm 6 m/s 759 mmHg 78%
06:00 +1°C° 0 mm 6 m/s 759 mmHg 79%
07:00 0°C° 0 mm 7 m/s 759 mmHg 79%
08:00 +2°C° 0.1 mm 7 m/s 759 mmHg 78%
09:00 +2°C° 0.1 mm 7 m/s 760 mmHg 77%
10:00 +3°C° 0.1 mm 7 m/s 760 mmHg 76%
11:00 +3°C° 0.1 mm 7 m/s 760 mmHg 75%
12:00 +3°C° 0.1 mm 7 m/s 760 mmHg 73%
13:00 +4°C° 0.1 mm 6 m/s 760 mmHg 72%
14:00 +4°C° 0 mm 6 m/s 760 mmHg 72%
15:00 +4°C° 0 mm 6 m/s 760 mmHg 72%
16:00 +6°C° 0 mm 5 m/s 760 mmHg 71%
17:00 +5°C° 0 mm 5 m/s 760 mmHg 72%
18:00 +5°C° 0 mm 5 m/s 760 mmHg 72%
19:00 +3°C° 0 mm 5 m/s 761 mmHg 72%
20:00 +3°C° 0 mm 5 m/s 761 mmHg 73%
21:00 +4°C° 0 mm 4 m/s 761 mmHg 74%
22:00 +3°C° 0 mm 4 m/s 761 mmHg 75%
23:00 +3°C° 0 mm 4 m/s 761 mmHg 77%

16 Aprilie, Vineri

Timp Temperatura Precipitaţii Vânt Presiune Umiditate
00:00 +1°C° 0 mm 4 m/s 761 mmHg 79%
01:00 +1°C° 0 mm 4 m/s 761 mmHg 82%
02:00 +1°C° 0 mm 4 m/s 761 mmHg 83%
03:00 0°C° 0 mm 4 m/s 761 mmHg 84%
04:00 0°C° 0 mm 4 m/s 761 mmHg 86%
05:00 +1°C° 0 mm 4 m/s 761 mmHg 83%
06:00 +1°C° 0 mm 4 m/s 761 mmHg 81%
07:00 +2°C° 0 mm 5 m/s 761 mmHg 78%
08:00 +2°C° 0 mm 5 m/s 761 mmHg 80%
09:00 +2°C° 0 mm 5 m/s 762 mmHg 82%
10:00 +2°C° 0 mm 5 m/s 762 mmHg 84%
11:00 +3°C° 0.1 mm 4 m/s 762 mmHg 87%
12:00 +3°C° 0.1 mm 4 m/s 762 mmHg 91%
13:00 +3°C° 0.1 mm 4 m/s 762 mmHg 94%
14:00 +1°C° 0.2 mm 4 m/s 762 mmHg 95%
15:00 +1°C° 0.2 mm 4 m/s 762 mmHg 96%
16:00 +2°C° 0.2 mm 3 m/s 763 mmHg 97%
17:00 +2°C° 0.1 mm 3 m/s 763 mmHg 97%
18:00 +2°C° 0.1 mm 3 m/s 763 mmHg 96%
19:00 +2°C° 0.1 mm 3 m/s 763 mmHg 96%
20:00 +3°C° 0.1 mm 3 m/s 763 mmHg 96%
21:00 +3°C° 0.1 mm 3 m/s 764 mmHg 96%
22:00 +4°C° 0.1 mm 2 m/s 764 mmHg 96%
23:00 +4°C° 0.1 mm 2 m/s 764 mmHg 96%
Arată mai mult

Formular de consimțământ

Meteoprog și furnizorii noștri de servicii pot stoca și accesa date personale, precum cookies, identificatori de dispozitiv sau alte tehnologii similare pe dispozitivul dumneavoastră și procesa astfel de date pentru a personaliza conținutul și reclamele, dar și pentru a oferi caracteristici de social media și pentru a analiza traficul.

  • Stocarea și/sau accesarea informațiilor pe dispozitivul dumneavoastră

    Cookies, identificatori de dispozitiv sau alte informații pot fi stocate sau accesate pe dispozitiv în scopurile indicate mai sus.

  • Reclame și conținut personalizat, evaluarea reclamelor și a conținutului, informații despre audiențe și dezvoltarea produselor

    Reclamele și conținutul pot fi personalizate pe baza unui profil. Pot fi adăugate date suplimentare pentru a personaliza mai bine reclamele și conținutul. Performanța reclamelor și conținutului poate fi măsurată. Pot fi obținute informații despre utilizatorii care au văzut reclamele și conținutul. Aceste date pot fi utilizate pentru a dezvolta sau îmbunătăți experiența utilizatorilor, sistemele și software-ul.

Dând clic pe ‘Sunt de acord’, permiteți utilizarea cookie-urilor menționate, a identificatorilor de dispozitiv, balizelor web sau altor tehnologii similare. Setările pot fi modificate din browser-ul dispozitivului dumneavoastră.

În anumite scopuri, interesele legitime pot prima asupra consimțământului. Puteți citi mai multe informații în acest sens în Politica privind Confidențialitatea Datelor și Cookie.